YAOGAN-3

Last updated on Sat Oct 25 2025 00:02:31 GMT+0000 (Coordinated Universal Time)

1 32289U 07055A 25297.71537083 .00003032 00000+0 32409-3 0 9998 2 32289 97.8424 324.7793 0001857 99.0513 261.0914 14.89506598970793
UTC large
Height (km)
Speed (km/s)
/
Latitude / Longitude
Inclination (degrees)
Orbital Period (minutes)
Azimuth
Elevation
Range (km)
Doppler Factor

Next 0 passes for location: London (51.5072 / 0.1276)

Sorry there are no passes over London.